Location: NJAA Observatory
(40.6819°N, 74.8979°W)
Time: 07:59:28
(UTC-04:00)

Iridium 56 - Visible Passes

Search period start: 19 April 2014 00:00
Search period end: 29 April 2014 00:00
Orbit: 776 x 779 km, 86.4° (Epoch: 18 April)

Date Brightness Start Highest point End Pass type
(mag) Time Alt. Az. Time Alt. Az. Time Alt. Az.
20 Apr 8.2 05:18:18 10° NNE 05:22:28 24° ENE 05:26:36 10° SE visible
21 Apr 8.7 04:46:14 10° NE 04:48:36 13° ENE 04:50:57 10° E visible
23 Apr 7.5 05:17:59 10° NNE 05:22:43 34° E 05:27:24 10° SE visible
24 Apr 8.4 04:45:17 10° NNE 04:48:56 19° ENE 04:52:33 10° ESE visible
26 Apr 6.7 05:17:51 10° N 05:22:54 49° E 05:27:55 10° SSE visible
27 Apr 7.8 04:44:49 10° NNE 04:49:12 27° E 04:53:34 10° SE visible
28 Apr 8.4 04:12:27 10° NE 04:15:22 15° ENE 04:18:15 10° ESE visible
